Tracking 35237 objects as of 6-Sep-2026
HD Live streaming from Space Station
objects crossing your sky now

IPERDRONE.0

Track IPERDRONE.0 now!
10-day predictions
IPERDRONE.0 is classified as:


NORAD ID: 60520
Int'l Code: 2024-149BE
Launch date: August 16, 2024
Source: Italy (IT)
Launch site: AIR FORCE WESTERN TEST RANGE (AFWTR)

Uplink (MHz):
Downlink (MHz): 401.110
Beacon (MHz):
Mode: 9k6 FSK
Call sign:
Status: Unknown

Your satellite tracking list
Your tracking list is empty




NASA's NSSDC Master Catalog

Two Line Element Set (TLE):
1 60520U 24149BE  26249.25102444  .00129602  00000-0  60730-3 0  9997
2 60520  97.3705 347.3179 0003548 261.7707  98.3160 15.82855454115663
Source of the keplerian elements: AFSPC